EHI
17 16 17 17 17 17 17 15 12 12 14 16 16 13 11 11 12 12 11 10 10 7 4 3 2 2 2 1 2 2 2 2 1 0 0 0 0 1 1 0 0 0 0
17 17 16 15 14 14 14 14 12 12 12 13 13 12 12 12 11 9 9 10 10 8 5 4 2 1 1 0 1 1 1 1 0 0 0 0 0 1 1 0 0 0 0
14 15 14 13 12 12 12 12 12 12 12 11 10 10 12 12 9 7 8 10 10 9 7 5 3 1 0 0 0 0 0 0 0 0 0 0 0 1 1 0 0 0 0
11 11 11 11 11 11 11 11 11 12 12 10 9 10 11 10 8 7 8 9 10 9 7 5 3 1 0 0 0 0 0 0 0 0 0 0 0 0 1 0 0 0 0
9 9 9 9 9 9 10 9 9 9 10 11 11 10 9 8 6 5 6 7 8 7 6 5 3 1 0 0 0 0 0 0 0 0 0 0 0 0 0 0 0 0 0
8 8 7 7 7 7 8 7 7 7 9 11 12 11 9 6 3 2 4 6 6 6 7 6 3 1 0 0 0 0 0 0 0 0 0 0 0 0 0 0 0 0 0
7 7 6 6 6 7 7 7 7 7 9 11 11 10 9 5 1 0 2 5 6 7 8 7 4 1 0 0 0 0 0 0 0 0 0 0 0 0 0 0 0 0 0
6 6 6 6 6 6 6 6 7 8 10 12 12 11 10 6 2 0 1 4 6 7 8 8 5 2 0 0 0 0 0 0 0 0 0 0 0 0 0 0 1 0 0
6 6 6 6 6 7 7 8 8 9 10 12 13 13 12 8 3 0 1 3 6 7 8 7 5 2 0 0 0 0 0 0 0 0 0 0 0 0 0 0 0 0 0
7 7 7 7 7 8 9 10 11 11 11 13 14 14 14 9 3 0 1 3 4 5 5 5 3 1 0 0 0 0 0 0 0 0 0 0 0 0 0 0 0 0 0
8 7 7 8 9 10 12 13 13 13 13 13 15 15 13 8 3 0 1 3 3 2 2 3 2 1 0 0 0 0 0 0 0 0 0 0 0 0 0 0 0 0 0
9 9 9 9 10 10 12 14 13 12 12 12 13 13 10 6 2 0 0 1 1 0 1 1 1 1 0 0 0 0 0 0 0 0 0 0 0 0 0 0 0 0 0
11 10 10 10 9 9 10 11 10 9 8 7 7 8 7 4 2 0 0 0 0 0 0 0 0 0 0 0 0 0 0 0 0 0 0 0 0 0 0 0 0 0 0
10 11 9 8 8 8 8 7 6 5 3 2 3 3 3 3 2 1 0 0 0 0 0 0 0 0 0 0 0 0 0 0 0 0 0 0 0 0 1 1 1 1 1
8 8 8 6 7 7 6 4 3 2 1 1 1 1 1 2 2 1 0 0 0 0 0 0 0 0 0 0 0 0 0 0 0 0 0 0 0 0 1 2 1 1 0
7 7 6 5 5 5 4 2 1 1 0 0 0 0 0 1 1 0 0 0 0 0 0 0 0 0 0 0 0 0 0 0 0 0 0 0 0 0 1 2 2 0 0
8 7 6 4 4 3 3 2 1 0 0 0 0 0 0 0 0 0 0 0 0 0 0 0 0 0 0 0 0 0 0 0 0 0 0 0 1 1 2 2 1 0 0
7 7 6 4 3 3 3 3 2 1 0 0 0 0 0 0 0 0 0 0 0 0 0 0 0 0 0 0 0 0 0 0 1 1 1 1 1 2 2 1 0 0 0
6 6 5 4 3 3 3 3 3 2 0 0 0 0 0 0 0 0 0 0 0 0 0 0 0 0 0 0 0 0 0 0 1 2 2 2 1 1 1 0 0 0 0
6 5 4 3 3 3 3 3 2 1 0 0 0 0 0 0 0 0 0 0 0 0 0 0 0 0 0 0 0 0 0 0 1 3 3 2 1 0 0 0 0 0 0
5 4 4 3 3 3 3 3 1 0 0 0 0 0 0 0 0 0 0 0 0 0 0 0 0 0 0 0 0 0 0 0 1 2 3 2 1 0 0 0 0 0 0
4 5 5 4 4 3 3 2 1 0 0 0 0 0 0 0 0 0 0 0 0 0 0 0 0 0 0 0 0 0 0 0 0 1 2 2 1 0 0 0 0 0 0
3 4 4 5 4 4 3 2 0 0 0 0 0 0 0 0 0 0 0 0 0 1 1 1 0 0 1 1 1 1 1 1 1 0 1 1 0 0 0 0 0 0 0
1 2 3 3 4 3 3 2 1 0 0 0 0 0 0 0 0 0 0 0 0 1 1 1 1 1 2 2 2 2 2 2 1 0 0 0 0 0 0 0 0 0 0
0 1 1 1 2 3 2 2 1 0 0 0 0 0 0 0 0 0 0 0 0 0 1 1 2 3 4 4 3 3 3 2 1 0 1 1 1 0 0 0 0 0 0
0 0 0 1 2 2 1 1 1 0 0 0 0 0 0 0 0 0 0 0 0 0 0 0 1 3 5 5 4 3 2 1 0 1 2 2 1 0 0 0 0 0 0
Wind_Speed
4 3 3 4 4 3 3 3 2 2 2 2 3 3 3 4 3 3 3 3 4 3 3 3 3 2 1 1 1 1 2 2 2 2 1 1 2 1 2 2 3 4 5
3 2 2 3 4 4 3 3 3 3 3 2 2 3 3 3 3 4 4 4 3 3 3 2 2 2 2 2 1 2 2 2 2 3 2 1 2 2 2 3 3 4 3
4 3 2 2 2 3 3 3 3 2 2 2 2 2 3 3 3 4 4 4 3 3 3 3 3 3 2 2 2 2 2 2 2 2 3 2 1 2 2 2 3 2 3
3 3 3 2 2 2 3 3 3 2 3 3 2 2 3 3 3 3 3 3 3 2 2 2 3 3 3 3 3 3 3 2 2 2 3 2 2 2 2 2 2 2 3
3 3 3 2 1 1 1 2 3 3 3 3 3 2 2 3 2 2 2 3 2 2 2 2 3 3 3 3 3 2 2 2 2 3 3 3 2 2 2 2 3 2 3
2 3 3 3 2 1 1 2 2 2 2 2 2 2 2 2 2 2 2 2 2 3 3 3 3 3 4 5 4 4 3 4 3 3 3 3 3 3 2 3 3 2 3
3 3 3 3 3 3 3 2 2 2 1 1 1 2 2 1 2 2 2 2 3 3 3 2 3 3 3 3 3 5 5 6 6 4 4 4 4 3 2 3 3 2 3
2 3 2 2 2 2 2 1 1 1 1 2 2 2 2 2 3 3 3 3 3 3 3 3 3 2 2 2 3 3 3 4 5 4 4 4 4 3 2 3 3 3 3
2 2 2 2 2 1 1 1 1 2 2 2 2 2 2 2 3 3 2 2 2 3 3 2 2 2 1 0 2 2 3 3 4 4 5 5 4 3 2 2 2 2 3
1 1 1 1 1 1 1 1 1 2 3 3 2 2 1 1 3 3 2 2 2 2 2 2 2 2 1 1 2 2 2 2 2 2 3 3 4 4 5 4 3 3 2
0 1 0 0 1 1 1 1 2 2 2 2 2 1 1 2 4 4 4 1 2 2 1 1 1 3 3 3 3 2 3 3 2 2 2 2 2 2 2 3 3 3 3
1 1 1 1 1 0 0 1 1 1 2 2 2 2 1 2 3 4 4 3 2 2 2 1 1 3 4 4 3 4 4 3 2 1 1 2 2 2 2 3 3 4 3
1 2 1 1 1 0 0 1 2 1 1 1 1 1 1 1 2 4 4 3 3 2 1 1 2 2 3 3 5 4 3 2 2 2 2 2 2 2 2 1 1 2 3
1 1 1 1 0 0 0 1 1 2 2 1 1 1 1 1 1 2 2 2 3 3 3 3 4 4 4 4 3 3 3 2 2 2 2 2 1 1 1 1 1 1 2
1 1 1 1 1 0 1 1 1 1 1 1 2 2 1 1 1 1 2 2 2 2 2 2 2 2 2 2 2 2 2 2 2 2 2 1 2 2 1 1 1 1 2
1 1 1 1 1 1 1 1 3 1 1 1 1 1 1 0 1 1 1 1 2 2 2 3 2 2 2 2 2 2 2 2 2 2 2 2 2 2 2 1 1 1 2
0 1 1 1 1 1 1 1 1 0 1 1 1 1 2 2 1 1 1 1 2 2 2 3 3 2 2 2 2 2 2 2 2 2 2 2 2 2 2 2 2 2 2
1 1 2 1 1 1 1 1 1 1 1 1 2 3 4 4 4 3 2 1 2 3 3 3 2 2 2 2 2 2 2 1 1 1 2 2 2 2 2 3 2 3 3
2 1 2 2 2 1 1 1 1 1 1 1 1 2 4 4 4 4 3 3 3 2 2 2 2 2 2 2 2 2 2 1 1 2 2 2 1 2 2 3 3 4 4
1 2 2 3 2 2 1 1 1 1 1 1 2 2 1 2 2 2 3 4 3 2 2 2 2 2 2 2 1 1 1 1 1 2 2 2 2 2 3 4 4 4 3
1 1 2 2 2 2 2 2 2 2 2 1 1 2 2 3 3 3 3 3 3 2 2 2 2 2 1 1 1 1 1 2 2 2 2 2 2 3 3 3 4 4 3
2 2 1 2 2 2 3 3 2 2 2 3 2 1 3 3 2 2 2 2 2 1 1 1 1 1 1 1 1 1 2 2 2 2 2 2 3 3 3 3 3 3 3
3 2 2 1 1 2 2 3 2 2 3 3 2 1 1 2 2 2 1 1 0 0 0 0 1 1 1 1 1 1 2 2 2 2 3 3 3 3 3 3 4 4 4
3 2 2 2 2 2 2 3 3 3 3 3 2 2 1 1 2 2 2 2 2 1 0 0 0 1 2 1 1 2 3 3 3 3 4 4 4 4 3 3 4 5 4
3 2 2 2 2 2 3 3 3 3 3 3 2 2 2 2 2 2 2 1 1 1 1 1 0 0 1 1 2 2 2 2 2 3 4 4 4 4 4 4 4 5 4
3 2 1 1 1 2 2 3 2 3 3 3 2 2 2 2 2 2 2 2 2 1 1 1 0 0 0 1 2 2 1 1 2 3 3 3 3 4 4 4 5 5 5
Wind_Direction
168 163 160 171 177 185 188 186 190 202 211 205 203 204 208 211 206 211 222 206 204 215 223 217 216 218 225 244 250 237 234 228 249 266 260 241 215 209 175 197 197 197 192
156 151 172 177 180 186 189 182 183 192 208 205 205 212 211 202 200 210 220 219 205 213 219 218 224 224 226 243 249 245 237 230 230 264 274 260 242 213 194 209 226 220 200
157 161 171 179 179 184 179 179 187 192 208 218 217 223 218 209 212 216 215 219 216 218 215 214 220 222 225 234 234 248 245 244 219 244 266 256 251 225 202 223 236 234 238
160 163 165 175 174 177 187 183 187 189 210 221 220 229 223 219 215 217 219 214 219 223 213 209 216 215 217 228 235 236 242 245 231 234 250 245 242 235 194 205 241 228 239
160 167 169 158 161 183 186 192 190 199 216 218 219 223 222 221 221 212 226 223 220 234 229 221 213 211 206 211 233 233 238 240 245 238 243 245 241 227 220 217 230 232 233
163 176 166 161 168 198 215 199 196 209 221 215 219 237 238 240 187 191 217 242 228 231 238 235 214 212 203 204 220 229 232 234 244 250 252 252 254 242 239 235 236 242 254
183 181 170 171 183 203 223 216 210 214 219 226 215 221 225 216 177 186 220 237 235 232 235 240 251 241 206 207 220 227 239 244 237 236 250 257 261 255 245 253 251 253 257
189 179 169 180 191 210 223 238 224 213 221 230 228 224 219 218 191 192 217 226 240 236 227 226 233 252 240 233 231 228 232 240 234 226 238 256 269 276 250 243 247 253 260
176 155 173 199 194 207 235 238 235 224 227 226 225 221 220 203 181 187 200 234 233 242 241 229 211 203 230 237 258 253 252 253 240 232 229 234 245 266 263 255 252 252 268
200 160 174 194 200 224 241 248 258 245 238 231 230 226 215 167 167 177 186 234 250 250 237 195 168 169 170 180 218 243 258 272 289 273 252 244 238 244 238 228 231 236 257
277 103 106 306 230 214 246 249 248 255 250 235 224 220 210 189 164 168 174 218 268 278 262 219 177 174 193 210 216 228 246 260 269 268 254 247 242 237 226 226 225 222 233
117 92 74 40 308 343 306 254 246 236 248 232 216 215 210 176 155 169 174 205 262 279 279 297 180 201 208 220 223 235 249 258 260 263 262 262 258 248 239 230 225 225 230
82 86 83 71 26 359 314 297 273 244 242 247 228 224 234 173 150 160 180 217 256 266 303 320 295 252 225 224 222 235 234 233 244 248 252 255 254 256 254 236 230 233 247
99 104 130 140 134 335 296 282 324 323 306 295 299 280 253 184 154 161 199 218 228 245 257 261 252 248 232 238 230 225 220 226 233 241 251 257 269 268 256 240 241 253 265
121 152 186 175 145 77 33 359 358 22 339 324 323 316 302 262 248 234 217 221 229 235 252 257 250 230 220 228 225 209 211 225 238 245 246 258 267 270 271 265 250 250 252
188 217 224 197 177 169 156 45 34 63 95 85 340 302 330 345 214 215 209 213 214 215 223 245 248 248 248 242 240 236 225 225 234 239 242 247 257 265 272 272 257 261 269
334 294 272 241 215 202 190 188 196 316 356 332 286 271 257 243 236 252 211 223 230 195 215 242 242 240 249 256 258 255 251 243 232 233 239 247 254 269 281 287 284 281 278
259 258 263 259 255 220 201 222 226 202 215 254 261 248 249 241 231 225 197 174 241 222 233 246 250 242 239 250 260 264 258 259 263 270 271 274 265 268 278 278 276 276 280
303 306 311 306 290 270 236 233 258 270 265 243 214 236 249 244 239 240 199 227 255 252 251 256 255 257 252 253 254 257 260 256 256 260 260 272 274 276 282 281 279 281 276
273 296 300 299 294 283 289 279 256 251 248 242 244 238 212 227 233 220 212 229 242 246 256 273 270 266 263 254 248 259 274 274 263 257 255 261 269 269 271 277 279 279 271
275 267 269 286 297 319 323 314 310 301 295 285 262 243 239 237 241 243 215 215 226 239 246 258 271 276 292 307 298 296 292 287 283 284 284 276 275 276 276 277 281 284 290
294 279 261 284 306 316 316 310 316 321 318 311 293 256 248 260 257 245 241 236 225 222 242 274 281 289 297 320 330 328 314 306 307 314 302 288 283 282 281 280 283 286 287
303 306 298 286 294 314 304 305 314 309 310 311 314 312 279 289 303 316 324 349 62 111 114 301 306 330 347 359 352 342 331 331 327 320 310 300 295 291 289 288 293 297 292
299 303 308 332 320 304 303 309 309 310 319 328 334 342 332 328 329 331 342 360 14 34 65 98 38 25 20 19 28 32 30 11 351 339 326 309 299 294 298 298 294 294 296
282 282 287 290 288 300 309 309 318 334 333 337 339 344 342 347 352 360 359 355 357 6 358 339 345 46 7 26 50 62 61 35 12 336 316 309 311 315 309 303 305 303 302
284 286 303 312 321 320 318 322 326 330 334 334 340 346 344 356 7 6 358 353 343 332 328 325 293 236 319 64 87 102 106 49 6 336 316 305 311 315 314 306 306 305 306